[[{"header":{"parameterUnit":"m.s-1","parameterCategory":1,"la1":30.2992,"la2":30.254,"lo1":-89.0895,"lo2":-89.0443,"dy":0.0025,"dx":0.0025,"nx":19,"ny":19,"refTime":"2026-05-15T21:00:00:Z","depth":0,"parameterNumber":2,"parameterNumberName":"U-component_of_WINDS"},"data":[0,0,0,-2.3255,-2.3257,-2.3356,-2.3356,-2.3482,-2.3484,0,0,0,0,0,0,0,0,0,0,0,-2.3226,-2.3227,-2.3255,-2.3257,-2.3356,-2.3356,-2.3482,-2.3484,0,0,0,0,0,0,0,0,0,0,0,-2.3226,-2.3227,-2.3228,-2.3258,-2.3356,-2.3356,-2.3482,-2.3407,0,0,0,0,0,0,0,0,0,0,-2.3312,-2.3286,-2.3227,-2.3228,-2.3258,-2.3356,-2.3356,-2.3404,-2.3412,-2.3438,0,-2.3462,0,-2.3475,-2.3492,-2.3493,0,0,0,-2.3257,-2.3279,-2.3305,-2.3228,-2.3259,-2.3355,-2.3311,-2.3408,-2.3418,-2.3449,-2.3463,-2.3468,-2.3477,-2.3493,-2.3494,-2.3645,-2.3646,0,0,-2.3251,-2.3244,-2.3299,-2.3311,-2.3296,-2.3308,-2.3314,-2.3414,-2.3429,-2.3464,-2.3471,-2.3479,-2.3494,-2.3495,-2.3644,-2.3645,0,0,0,-2.3236,-2.3241,-2.3264,-2.3306,-2.3324,-2.3311,-2.3318,-2.3425,-2.3433,-2.3472,-2.348,-2.3494,-2.3496,-2.3644,-2.3645,-2.3673,0,0,0,-2.3233,-2.3232,-2.3262,-2.3259,-2.3322,-2.3376,-2.3327,-2.3426,-2.3438,-2.348,-2.3495,-2.3497,-2.3643,-2.3644,-2.367,-2.3687,0,0,0,-2.322,-2.323,-2.3245,-2.3258,-2.33,-2.3374,-2.3388,-2.3429,-2.3443,-2.3493,-2.3498,-2.3642,-2.3644,-2.3668,-2.3683,-2.3723,0,0,0,-2.3204,-2.3269,-2.3245,-2.3321,-2.3299,-2.3391,-2.3388,-2.3457,-2.3503,-2.3495,-2.3643,-2.3645,-2.3667,-2.3681,-2.3721,-2.3755,-2.3769,0,0,-2.3282,-2.3278,-2.3324,-2.3305,-2.3399,-2.3377,-2.3476,-2.3525,-2.3536,-2.3608,-2.3612,-2.3671,-2.3683,-2.3723,-2.3852,-2.3863,0,0,0,-2.3346,-2.3378,-2.3405,-2.3448,-2.3488,-2.3522,-2.3557,-2.3576,-2.3637,-2.3572,-2.3698,-2.3705,-2.3729,-2.3745,-2.3754,-2.3774,-2.3652,-2.3652,-2.3652,-2.3446,-2.3457,-2.3532,-2.3554,-2.3597,-2.3632,-2.3667,-2.3698,-2.3697,-2.3727,-2.3747,-2.3824,-2.3843,-2.385,-2.3871,-2.3767,-2.3768,-2.3768,-2.3768,-2.356,-2.3606,-2.3604,-2.3675,-2.3686,-2.3746,-2.3783,-2.378,-2.3837,-2.381,-2.3831,-2.3798,-2.3862,-2.388,-2.377,-2.377,-2.3769,-2.3769,-2.3769,-2.3625,-2.3649,-2.367,-2.3734,-2.3782,-2.3803,-2.3858,-2.3867,-2.3875,-2.3897,-2.3918,-2.3918,-2.3917,-2.3907,-2.3907,-2.3907,-2.3908,-2.3908,-2.3908,-2.3683,-2.3706,-2.3751,-2.3798,-2.3827,-2.3866,-2.3902,-2.3931,-2.3965,-2.3966,-2.3967,-2.3961,-2.3867,-2.3841,-2.3912,-2.3911,-2.3911,-2.391,-2.391,-2.3792,-2.3769,-2.3838,-2.3867,-2.3922,-2.3969,-2.398,-2.4037,-2.4062,-2.4088,-2.4079,-2.4008,-2.4004,-2.3997,-2.3976,-2.4077,-2.4077,-2.4077,-2.4077,-2.3845,-2.3845,-2.3917,-2.3962,-2.4008,-2.4025,-2.4102,-2.413,-2.4156,-2.4172,-2.4159,-2.4133,-2.4125,-2.4126,-2.4116,-2.4096,-2.4226,-2.4226,-2.4227,-2.3912,-2.3916,-2.398,-2.4005,-2.4049,-2.4086,-2.4159,-2.421,-2.4235,-2.4233,-2.4184,-2.4178,-2.4136,-2.4122,-2.4116,-2.41,-2.4065,0,0]},{"header":{"parameterUnit":"m.s-1","parameterCategory":1,"la1":30.2992,"la2":30.254,"lo1":-89.0895,"lo2":-89.0443,"dy":0.0025,"dx":0.0025,"nx":19,"ny":19,"refTime":"2026-05-15T21:00:00:Z","depth":0,"parameterNumber":3,"parameterNumberName":"V-component_of_WINDS"},"data":[0,0,0,3.3342,3.3344,3.3415,3.3415,3.3521,3.3522,0,0,0,0,0,0,0,0,0,0,0,3.3332,3.3334,3.3342,3.3344,3.3415,3.3415,3.352,3.3522,0,0,0,0,0,0,0,0,0,0,0,3.3332,3.3333,3.3335,3.3345,3.3415,3.3415,3.352,3.3461,0,0,0,0,0,0,0,0,0,0,3.3389,3.3392,3.3333,3.3335,3.3345,3.3415,3.3415,3.3458,3.3465,3.3495,0,3.3528,0,3.3527,3.353,3.353,0,0,0,3.3335,3.3386,3.3395,3.3335,3.3346,3.3415,3.3381,3.3461,3.3469,3.3505,3.3529,3.3533,3.3529,3.3531,3.3531,3.3743,3.3744,0,0,3.3331,3.3351,3.339,3.3401,3.3393,3.3378,3.3383,3.3466,3.3493,3.353,3.3535,3.353,3.3531,3.3532,3.3741,3.3743,0,0,0,3.3326,3.3349,3.3355,3.3397,3.3409,3.3381,3.3386,3.3489,3.349,3.3536,3.3531,3.3532,3.3534,3.374,3.3742,3.3829,0,0,0,3.3323,3.3345,3.3354,3.3366,3.3408,3.3451,3.3408,3.3484,3.3493,3.3531,3.3532,3.3535,3.3738,3.3741,3.3823,3.3867,0,0,0,3.3324,3.3345,3.336,3.3367,3.3399,3.3449,3.3454,3.3486,3.3491,3.353,3.3535,3.3737,3.374,3.3818,3.3858,3.3927,0,0,0,3.333,3.3437,3.3361,3.3479,3.3398,3.3504,3.3453,3.353,3.3575,3.3533,3.3738,3.3742,3.3817,3.3853,3.3921,3.3987,3.4016,0,0,3.3475,3.3455,3.3523,3.3457,3.3581,3.3491,3.3626,3.3648,3.3634,3.3706,3.3711,3.3825,3.3858,3.3925,3.4178,3.4202,0,0,0,3.3575,3.3624,3.3652,3.3696,3.3716,3.3736,3.3735,3.3743,3.3804,3.3676,3.3869,3.3887,3.3926,3.3956,3.3977,3.4008,3.3757,3.3757,3.3756,3.3808,3.3784,3.3894,3.3878,3.3921,3.3919,3.3951,3.396,3.3924,3.397,3.399,3.4147,3.4183,3.4198,3.4231,3.4024,3.4025,3.4025,3.4025,3.4018,3.4082,3.403,3.4118,3.4091,3.4164,3.4165,3.4136,3.4198,3.413,3.4162,3.4088,3.4225,3.4252,3.4032,3.4031,3.403,3.4029,3.4029,3.4166,3.4192,3.4201,3.426,3.4309,3.4289,3.4351,3.4324,3.43,3.4333,3.435,3.4349,3.4342,3.4343,3.4344,3.4345,3.4345,3.4345,3.4346,3.4316,3.4323,3.4379,3.4408,3.4432,3.446,3.4458,3.448,3.4497,3.4472,3.4472,3.443,3.4244,3.4196,3.4354,3.4352,3.4351,3.4351,3.435,3.4534,3.448,3.4567,3.4591,3.4622,3.467,3.4637,3.4683,3.4697,3.4728,3.4679,3.4546,3.4523,3.4506,3.4467,3.4685,3.4685,3.4685,3.4685,3.4658,3.4644,3.4726,3.4765,3.48,3.4778,3.4874,3.4873,3.4863,3.487,3.4835,3.4781,3.4766,3.4751,3.473,3.4692,3.4963,3.4963,3.4963,3.4789,3.4778,3.4865,3.4856,3.4878,3.4897,3.4986,3.5031,3.5009,3.4974,3.4874,3.4862,3.4775,3.4748,3.4709,3.4676,3.4607,0,0]}]]